Date String (YYYY-MM-DD hh:mm:ss) UTC,Instrument flags,absolute air pressure of the measurement (hPa),sample flow rate (lpm),inlet stack bypass flow (lpm),air temperature of the measurement (°C),ambient temperature measured by the external sensor (°C),aerosol sample conditioner tube jacket temperature (°C),OPC LED temperature (°C),internal box temperature (°C),relative humidity of the measurement (%),span deviation,mass concentration of particles derived from Lorenz-Mie calculation of OPC scattering (μg/m³),mass concentration of particles derived from Lorenz-Mie calculation of OPC scattering (μg/m³),mass concentration of particles derived from Lorenz-Mie calculation of OPC scattering (μg/m³)
DateTimeUTC,F1_M11,P_M11,Q1_M11,Q2_M11,T1_M11,T2_M11,T3_M11,T4_M11,T5_M11,U1_M11,ZSPAN_M11,X2_M11,X0_M11,X1_M11
2024-04-28 00:00:00,SystemResetWarning,0824.9,5.00,000.00,021.9,021.2,000.0,030.4,023.7,027.6,0000.0,0001.95,0002.35,0001.78
2024-04-28 00:01:00,SystemResetWarning,0824.9,5.01,000.00,021.9,021.2,000.0,030.4,023.7,027.4,0000.0,0001.94,0002.34,0001.78
2024-04-28 00:02:00,SystemResetWarning,0824.9,5.00,000.00,021.9,021.3,000.0,030.4,023.7,027.5,0000.0,0001.96,0002.36,0001.80
2024-04-28 00:03:00,SystemResetWarning,0824.9,5.01,000.00,021.9,021.3,000.0,030.4,023.7,027.6,0000.0,0001.98,0002.38,0001.81
2024-04-28 00:04:00,SystemResetWarning,0824.9,5.01,000.00,021.9,021.3,000.0,030.4,023.7,027.9,0000.0,0002.04,0002.49,0001.85
2024-04-28 00:05:00,SystemResetWarning,0824.9,4.99,000.00,021.9,021.3,000.0,030.4,023.7,027.8,0000.0,0002.06,0002.41,0001.88
2024-04-28 00:06:00,SystemResetWarning,0824.9,5.00,000.00,021.9,021.3,000.0,030.4,023.7,027.7,0000.0,0002.08,0002.33,0001.92
2024-04-28 00:07:00,SystemResetWarning,0824.9,5.00,000.00,021.9,021.3,000.0,030.4,023.8,027.9,0000.0,0002.13,0002.44,0001.96
2024-04-28 00:08:00,SystemResetWarning,0824.9,5.01,000.00,021.9,021.3,000.0,030.4,023.7,027.8,0000.0,0002.15,0002.52,0001.98
2024-04-28 00:09:00,SystemResetWarning,0824.9,5.01,000.00,021.9,021.3,000.0,030.4,023.7,027.8,0000.0,0002.21,0002.61,0002.03
2024-04-28 00:10:00,SystemResetWarning,0825.0,5.01,000.00,021.9,021.3,000.0,030.4,023.7,027.7,0000.0,0002.24,0002.63,0002.07
2024-04-28 00:11:00,SystemResetWarning,0824.9,5.00,000.00,021.9,021.3,000.0,030.4,023.7,027.6,0000.0,0002.27,0002.68,0002.10
2024-04-28 00:12:00,SystemResetWarning,0824.9,4.99,000.00,021.9,021.3,000.0,030.4,023.7,027.6,0000.0,0002.30,0002.73,0002.13
2024-04-28 00:13:00,SystemResetWarning,0824.9,4.99,000.00,021.9,021.3,000.0,030.4,023.7,027.6,0000.0,0002.34,0002.78,0002.16
2024-04-28 00:14:00,SystemResetWarning,0824.9,5.00,000.00,021.9,021.3,000.0,030.4,023.7,027.8,0000.0,0002.39,0002.85,0002.19
2024-04-28 00:15:00,SystemResetWarning,0824.9,5.01,000.00,021.9,021.3,000.0,030.4,023.8,027.7,0000.0,0002.38,0002.77,0002.21
2024-04-28 00:16:00,SystemResetWarning,0824.9,5.01,000.00,021.9,021.3,000.0,030.4,023.8,027.6,0000.0,0002.38,0003.33,0002.22
2024-04-28 00:17:00,SystemResetWarning,0824.9,5.00,000.00,021.9,021.3,000.0,030.4,023.8,027.6,0000.0,0002.40,0003.49,0002.23
2024-04-28 00:18:00,SystemResetWarning,0824.9,5.00,000.00,021.9,021.3,000.0,030.4,023.8,027.8,0000.0,0002.40,0003.60,0002.24
2024-04-28 00:19:00,SystemResetWarning,0824.9,5.00,000.00,021.9,021.3,000.0,030.4,023.8,027.7,0000.0,0002.42,0003.55,0002.26
2024-04-28 00:20:00,SystemResetWarning,0824.9,5.00,000.00,021.9,021.3,000.0,030.4,023.8,027.5,0000.0,0002.42,0003.57,0002.25
2024-04-28 00:21:00,SystemResetWarning,0824.9,5.00,000.00,021.9,021.3,000.0,030.4,023.8,027.4,0000.0,0002.40,0003.59,0002.24
2024-04-28 00:22:00,SystemResetWarning,0824.9,5.00,000.00,021.9,021.3,000.0,030.4,023.8,027.8,0000.0,0002.39,0003.60,0002.23
2024-04-28 00:23:00,SystemResetWarning,0825.0,5.01,000.00,021.9,021.2,000.0,030.4,023.7,027.7,0000.0,0002.36,0003.61,0002.19
2024-04-28 00:24:00,SystemResetWarning,0824.9,5.00,000.00,021.9,021.2,000.0,030.4,023.7,027.7,0000.0,0002.29,0003.60,0002.13
2024-04-28 00:25:00,SystemResetWarning,0824.9,4.98,000.00,021.9,021.2,000.0,030.4,023.7,027.5,0000.0,0002.21,0003.56,0002.05
2024-04-28 00:26:00,SystemResetWarning,0825.0,5.01,000.00,021.9,021.2,000.0,030.4,023.7,027.4,0000.0,0002.14,0003.52,0001.97
2024-04-28 00:27:00,SystemResetWarning,0825.0,5.01,000.00,021.9,021.2,000.0,030.4,023.7,027.5,0000.0,0002.09,0003.06,0001.89
2024-04-28 00:28:00,SystemResetWarning,0825.0,5.00,000.00,021.9,021.2,000.0,030.4,023.7,027.4,0000.0,0002.00,0002.72,0001.82
2024-04-28 00:29:00,SystemResetWarning,0825.0,5.01,000.00,021.9,021.2,000.0,030.4,023.7,027.4,0000.0,0001.92,0002.50,0001.74
2024-04-28 00:30:00,SystemResetWarning,0825.0,5.00,000.00,021.9,021.2,000.0,030.4,023.7,027.5,0000.0,0001.81,0002.36,0001.66
2024-04-28 00:31:00,SystemResetWarning,0825.0,4.99,000.00,021.9,021.2,000.0,030.4,023.7,027.4,0000.0,0001.73,0002.22,0001.59
2024-04-28 00:32:00,SystemResetWarning,0825.0,4.99,000.00,021.9,021.2,000.0,030.4,023.7,027.7,0000.0,0001.68,0002.13,0001.53
2024-04-28 00:33:00,SystemResetWarning,0825.0,5.02,000.00,021.9,021.2,000.0,030.4,023.7,027.9,0000.0,0001.61,0002.07,0001.45
2024-04-28 00:34:00,SystemResetWarning,0825.0,5.00,000.00,021.9,021.2,000.0,030.4,023.7,027.7,0000.0,0001.55,0002.07,0001.39
2024-04-28 00:35:00,SystemResetWarning,0825.0,4.99,000.00,021.9,021.2,000.0,030.4,023.7,027.5,0000.0,0001.51,0002.02,0001.35
2024-04-28 00:36:00,SystemResetWarning,0825.0,4.99,000.00,021.9,021.2,000.0,030.4,023.7,027.4,0000.0,0001.49,0001.95,0001.31
2024-04-28 00:37:00,SystemResetWarning,0825.0,4.99,000.00,021.9,021.2,000.0,030.4,023.7,027.5,0000.0,0001.43,0001.87,0001.28
2024-04-28 00:38:00,SystemResetWarning,0825.0,5.00,000.00,021.9,021.2,000.0,030.4,023.7,027.5,0000.0,0001.39,0001.82,0001.25
2024-04-28 00:39:00,SystemResetWarning,0825.0,5.00,000.00,021.9,021.2,000.0,030.4,023.7,027.5,0000.0,0001.36,0001.76,0001.22
2024-04-28 00:40:00,SystemResetWarning,0825.0,5.01,000.00,021.9,021.2,000.0,030.4,023.7,027.5,0000.0,0001.33,0001.68,0001.19
2024-04-28 00:41:00,SystemResetWarning,0825.0,5.01,000.00,021.9,021.2,000.0,030.4,023.7,027.6,0000.0,0001.32,0001.70,0001.16
2024-04-28 00:42:00,SystemResetWarning,0825.0,4.99,000.00,021.9,021.2,000.0,030.4,023.7,027.7,0000.0,0001.30,0001.67,0001.12
2024-04-28 00:43:00,SystemResetWarning,0825.0,5.00,000.00,021.9,021.2,000.0,030.4,023.7,027.7,0000.0,0001.25,0001.60,0001.08
2024-04-28 00:44:00,SystemResetWarning,0825.0,5.00,000.00,021.9,021.2,000.0,030.4,023.7,027.9,0000.0,0001.20,0001.50,0001.05
2024-04-28 00:45:00,SystemResetWarning,0825.0,5.00,000.00,021.9,021.2,000.0,030.4,023.7,027.9,0000.0,0001.15,0001.36,0001.02
2024-04-28 00:46:00,SystemResetWarning,0825.0,5.00,000.00,021.9,021.2,000.0,030.4,023.7,028.0,0000.0,0001.13,0001.30,0001.00
2024-04-28 00:47:00,SystemResetWarning,0825.0,5.00,000.00,021.9,021.2,000.0,030.4,023.7,028.1,0000.0,0001.10,0001.28,0000.98
2024-04-28 00:48:00,SystemResetWarning,0825.0,5.01,000.00,021.9,021.2,000.0,030.4,023.7,028.1,0000.0,0001.10,0001.35,0000.97
2024-04-28 00:49:00,SystemResetWarning,0825.0,5.00,000.00,021.9,021.2,000.0,030.4,023.7,027.9,0000.0,0001.10,0001.36,0000.96
2024-04-28 00:50:00,SystemResetWarning,0825.0,5.01,000.00,021.9,021.2,000.0,030.4,023.7,027.8,0000.0,0001.07,0001.32,0000.94
2024-04-28 00:51:00,SystemResetWarning,0825.1,4.99,000.00,021.8,021.2,000.0,030.4,023.7,027.6,0000.0,0001.04,0001.29,0000.91
2024-04-28 00:52:00,SystemResetWarning,0825.1,4.99,000.00,021.9,021.2,000.0,030.4,023.7,027.5,0000.0,0000.97,0001.22,0000.87
2024-04-28 00:53:00,SystemResetWarning,0825.1,5.00,000.00,021.8,021.2,000.0,030.4,023.7,027.5,0000.0,0000.92,0001.17,0000.83
2024-04-28 00:54:00,SystemResetWarning,0825.1,5.01,000.00,021.8,021.2,000.0,030.4,023.7,027.5,0000.0,0000.88,0001.13,0000.80
2024-04-28 00:55:00,SystemResetWarning,0825.1,5.01,000.00,021.9,021.2,000.0,030.4,023.7,027.4,0000.0,0000.87,0001.16,0000.77
2024-04-28 00:56:00,SystemResetWarning,0825.0,5.00,000.00,021.8,021.2,000.0,030.4,023.7,027.4,0000.0,0000.86,0001.18,0000.74
2024-04-28 00:57:00,SystemResetWarning,0825.1,4.99,000.00,021.8,021.2,000.0,030.4,023.7,027.5,0000.0,0000.82,0001.13,0000.71
2024-04-28 00:58:00,SystemResetWarning,0825.0,4.99,000.00,021.8,021.2,000.0,030.4,023.7,027.4,0000.0,0000.79,0001.06,0000.68
2024-04-28 00:59:00,SystemResetWarning,0825.0,5.01,000.00,021.8,021.1,000.0,030.4,023.7,027.4,0000.0,0000.75,0000.97,0000.64
